Preview of NWS' New Version of Forecast
This preview is not operational and should not be used for support decisions.

Regional Weather Roundup (RWR)

Issued by National Weather Service (NWS)

                            
000
ASUS42 KTBW 210115
RWRFL 
FLORIDA REGIONAL WEATHER ROUNDUP
NATIONAL WEATHER SERVICE TAMPA BAY RUSKIN FL
900 PM EDT SAT APR 20 2019

NOTE: "FAIR" INDICATES FEW OR NO CLOUDS BELOW 12,000 FEET WITH NO
SIGNIFICANT WEATHER AND/OR OBSTRUCTIONS TO VISIBILITY.

FLZ001>010-012>015-112-114-115-210200-
PANHANDLE FLORIDA
  
CITY           SKY/WX    TMP DP  RH WIND       PRES   REMARKS
PENSACOLA      FAIR      64  32  30 W6        29.96R                  
PENSACOLA NAS  FAIR      59  38  45 W3        29.97R                  
MILTON NAS     FAIR      57  37  47 NW5       29.96R                  
CRESTVIEW      FAIR      55  39  54 CALM      29.97R                  
DUKE FIELD     FAIR      62  29  28 W3        29.95R                  
VALPARAISO     FAIR      61  31  32 NW6       29.95R                  
MARY ESTHER    CLEAR     64  29  27 NW6       29.96R                  
PANAMA CITY    FAIR      60  37  42 W5        29.94R                  
TYNDALL AFB    FAIR      65  44  46 W16G26    29.95R                  
APALACHICOLA   FAIR      60  40  47 W8        29.96R                  

STATION/POSITION SKY/WX   TEMP    WIND        PRES    WAVE   SWELL
                          AIR SEA DIR/SP/G            HT/PER HT/PER
                          (F)     (DEG/KT/KT) (MB)    (FT/S) (FT/S)
30.1N   87.6W                                 1015.2R
29.2N   88.2W                     290/ 17/ 21 1016.5R
PANAMA CITY BEAC           67 69  310/ 10/ 12 1014.3R
TOWER C          NOT AVBL

$$
FLZ011-016>038-118-127-128-134-139-239-210200-
NORTH FLORIDA
  
CITY           SKY/WX    TMP DP  RH WIND       PRES   REMARKS
TALLAHASSEE    FAIR      62  43  49 SW8       29.94R                  
PERRY          FAIR      58  46  63 W6        29.95R                  
LIVE OAK       CLEAR     61  45  55 CALM      29.94R                  
CROSS CITY     FAIR      60  47  61 SW5       29.97R                  
LAKE CITY      FAIR      61  45  55 SW9       29.96R                  
GAINESVILLE    FAIR      63  49  60 W7        29.99R                  
PALATKA        CLOUDY   N/A N/A N/A SW3       29.97R                  
MAYPORT NAS    FAIR      60  48  64 SW7       29.94R                  
JACKSONVILLE   MOCLDY    60  49  66 S6        29.93R                  
JAX NAS        FAIR      65  47  52 S5        29.95R                  
JAX CECIL      CLEAR     59  50  72 S6        29.94R                  
FERNANDINA BEA CLOUDY    64  50  61 SW9       29.94R                  
ST AUGUSTINE   FAIR      62  48  60 SW3       29.98R                  
PALM COAST     FAIR      61  46  58 SW3       29.98R                  

STATION/POSITION SKY/WX   TEMP    WIND        PRES    WAVE   SWELL
                          AIR SEA DIR/SP/G            HT/PER HT/PER
                          (F)     (DEG/KT/KT) (MB)    (FT/S) (FT/S)
SHELL POINT      NOT AVBL
KEATON BEACH               65     270/ 17/ 18 1014.6R
CEDAR KEY                  66     280/ 13/ 20 1014.4R
FERNANDINA                 66 70  190/  2/  5 1014.3R
30.7N   81.3W                 67                N/A     2/ 3
MAYPORT                    65 68  200/  6/  8 1014.0R
31.4N   80.9W              67 67  240/ 16/ 19 1012.8R   4/ 5   2/ 9
ST AUGUSTINE               63 72  220/  5/  8 1015.0R

$$
FLZ040-043>046-052-053-057-058-063-144-210200-
INTERIOR CENTRAL FLORIDA
  
CITY           SKY/WX    TMP DP  RH WIND       PRES   REMARKS
OCALA          FAIR      59  52  77 SW3       29.98R                  
LEESBURG       MOCLDY    64  48  56 SW6       29.99R                  
SANFORD        FAIR      64  45  49 SW6       29.99R                  
ORLANDO EXEC   FAIR      66  44  45 W8        29.99R                  
ORLANDO INTL   FAIR      64  43  46 W7        30.00R                  
KISSIMMEE      FAIR      62  46  55 SW5       30.02R                  
WINTER HAVEN   FAIR      65  47  52 SW7       30.02R                  
BARTOW         FAIR      64  46  52 SW5       30.00S                  
SEBRING        FAIR      64  44  48 W6        30.03R                  
OKEECHOBEE     FAIR      61  45  55 W6        30.03R                  

$$
FLZ041-047-054-059-064-141-147-210200-
EAST CENTRAL FLORIDA
  
CITY           SKY/WX    TMP DP  RH WIND       PRES   REMARKS
DAYTONA BEACH  FAIR      60  47  61 SW6       29.99R                  
DELAND         FAIR      63  45  51 CALM      29.99R                  
NEW SMYRNA BEA CLEAR     63  43  48 W5        30.00R                  
JFK SPACE CTR  FAIR      64  44  49 NW5       29.99R                  
TITUSVILLE     CLEAR     61  43  51 W3        30.00R                  
CAPE CANAVERAL FAIR      66  42  41 W8        29.99R                  
PATRICK AFB    FAIR      67  43  41 W13       30.00R                  
MELBOURNE      FAIR      62  43  49 W7        30.01R                  
VERO BEACH     FAIR      63  43  48 W9        30.01R                  
FT PIERCE      FAIR      62  47  57 W5        30.02R                  
STUART         CLEAR     68  50  52 W6        30.03                   

STATION/POSITION SKY/WX   TEMP    WIND        PRES    WAVE   SWELL
                          AIR SEA DIR/SP/G            HT/PER HT/PER
                          (F)     (DEG/KT/KT) (MB)    (FT/S) (FT/S)
28.5N   80.2W              70     270/ 17/ 21 1015.9R
28.9N   78.5W              74     260/ 12/ 17 1015.3R
TRIDENT PIER               67 77  260/  5/  7 1017.1R
28.4N   80.5W                 76                N/A     2/ 8
27.5N   80.2W                 76                N/A     2/ 8

$$
FLZ050-056-061-142-242-148-248-149-249-151-251-155-255-
160-260-210200-
WEST CENTRAL FLORIDA
  
CITY           SKY/WX    TMP DP  RH WIND       PRES   REMARKS
CRYSTAL RIVER  MOCLDY    64  50  59 W9G16     29.99R                  
INVERNESS      FAIR      59  55  88 CALM      30.00R                  
BROOKSVILLE    LGT RAIN  64  49  57 W12       30.00R                  
CLEARWATER AIR FAIR      64  50  59 W6        30.00R                  
ST PETE CLEARW MOCLDY    66  49  54 W13       30.00R                  
TAMPA INTL     LGT RAIN  65  55  70 W7        30.01R                  
PLANT CITY     FAIR      66  48  52 SW3       30.02S                  
MACDILL AFB    CLOUDY    67  51  56 SW8       30.00R                  
PETER O KNIGHT CLOUDY    68  54  60 W9        30.01R                  
ST PETERSBURG    N/A    N/A N/A N/A MISG      29.98R                  
SARASOTA       MOCLDY    68  50  52 W12       29.99S                  
VENICE         FAIR      68  52  56 W12       30.03R                  

STATION/POSITION SKY/WX   TEMP    WIND        PRES    WAVE   SWELL
                          AIR SEA DIR/SP/G            HT/PER HT/PER
                          (F)     (DEG/KT/KT) (MB)    (FT/S) (FT/S)
27.3N   84.2W                 75                N/A     8/ 8
CLEARWATER BEACH           68 73  250/ 15/ 19 1015.7R
MIDDLE TAMPA BAY           68     270/ 13/ 16 1015.9R
VENICE                     69 76  260/ 15/ 17 1016.5R

$$
FLZ066-069-070-075>078-162-262-165-265-210200-
SOUTHWEST FLORIDA AND KEYS
  
CITY           SKY/WX    TMP DP  RH WIND       PRES   REMARKS
PUNTA GORDA    FAIR      65  48  54 W6        30.04R                  
FT MYERS       FAIR      66  49  54 W6        30.03R                  
SOUTHWEST INTL FAIR      66  49  54 CALM      30.04R                  
NAPLES         MOCLDY    69  53  56 NW10      30.04R                  
MARCO ISLAND   MOCLDY    69  54  58 NW5       30.05R                  
IMMOKALEE      FAIR      64  48  55 W6        30.03R                  
MARATHON       MOCLDY    76  60  57 NW10      30.03R                  
KEY WEST NAS   MOCLDY    73  60  63 N12       30.04R                  
KEY WEST INTL  FAIR      73  63  70 N13       30.05R                  

STATION/POSITION SKY/WX   TEMP    WIND        PRES    WAVE   SWELL
                          AIR SEA DIR/SP/G            HT/PER HT/PER
                          (F)     (DEG/KT/KT) (MB)    (FT/S) (FT/S)
NAPLES                     70 77  260/ 12/ 15 1017.1R
DRY TORTUGAS               72     350/ 11/ 12 1017.9R
SAND KEY                   72                 1017.5R
SOMBRERO KEY               73                 1016.4R

$$
FLZ067-068-071>074-168-172>174-210200-
SOUTHEAST FLORIDA 
  
CITY           SKY/WX    TMP DP  RH WIND       PRES   REMARKS
W PALM BEACH   FAIR      70  46  42 W8        30.01R                  
BOCA RATON     PTCLDY    72  54  53 NW14G21   30.01R                  
FT LAUDER-EXEC FAIR      72  53  51 W12       30.01R                  
FT LAUDERDALE  FAIR      72  54  53 NW12      30.00R                  
POMPANO BEACH  FAIR      72  52  49 W14       30.00R                  
PEMBROKE PINES FAIR      71  54  54 W8        30.03R                  
OPA LOCKA      FAIR      72  56  57 NW13      30.02R                  
MIAMI          FAIR      72  57  59 W9        30.02R                  
WEST KENDALL   FAIR      67  59  75 W8        30.02R                  
HOMESTEAD      FAIR      70  58  64 W9        30.01R                  

STATION/POSITION SKY/WX   TEMP    WIND        PRES    WAVE   SWELL
                          AIR SEA DIR/SP/G            HT/PER HT/PER
                          (F)     (DEG/KT/KT) (MB)    (FT/S) (FT/S)
PORT EVERGLADES            75     290/ 16/ 20 1015.5
VIRGINIA KEY               75 80  270/  7/ 17 1015.5R
LAKE WORTH                 72 77  290/  8/ 12 1017.0R
SETTLEMENT POINT           75     160/  5/  6 1015.7R

$$